Шумунда

Россия / Забайкальский край     49°30′37″N   111°20′27″E
темп.,
°C
ветер,
м/с
пор.,
м/с
влажн.,
%
обл.,
%
осадки,
мм/ч
давл.,
гПа
погр.,
м
10 мая, пн
пн1000:00+2зсз1174100 0.0 101113
03:00+2зсз1173100 0.0 101010
06:00+1зсз117786 0.0 101010
09:00+6ююз135599 0.0 1006388
12:00+12сз4642100 0.1 10031810
15:00+11сз5745100 0.3 10031200
18:00+10ссз45407 0.0 10031368
21:00+4ссз2463100 0.0 100784
11 мая, вт
вт1100:00+2сз1175100 0.0 100935
03:00+1ссз1391100 1.2 1009169
06:00+1ссз1289100 1.1 100960
09:00+3с4670100 1.2 1009949
12:00+5ссз4552100 0.3 10091552
15:00+7ссз4544100 0.5 10081884
18:00+7сз4545100 0.2 10091484
21:00+3сз367013 0.2 1012193
12 мая, ср
ср1200:00−1з238713 0.0 101564
03:000зсз38765 0.0 1014266
06:00−2з22885 0.0 101426
09:00+6зсз36535 0.0 1011961
12:00+9сз56394 0.0 10091518
15:00+12сз5729100 0.0 10062805
18:00+12сз573027 0.0 10052349
21:00+5зсз225642 0.0 100713
13 мая, чт
чт1300:00+4зсз116093 0.0 100812
03:00+3сз1163100 0.0 100810
06:00+3с1171100 0.3 100729
09:00+2ссв2294100 2.6 1008211
12:00+2всв1197100 3.3 1006221
15:00+2св2299100 8.6 1006118
18:00+1ссв38100100 4.5 1004265
21:00+1сз1299100 9.6 1007119
14 мая, пт
пт1400:000ссз31182100 0.7 1008716
03:00−1зсз2290100 0.7 100963
06:00−7зсз33945 0.0 101343
09:000сз4969100 0.0 1011957
12:00+3сз6106539 0.0 10101645
15:00+3сз7106499 0.4 10101848
18:00+3зсз5117197 0.6 10091462
21:000з368281 0.8 1013164